星链-31295 (STARLINK-31295 )

导读 | 豆包AI

STARLINK-31295是美国于2024年2月29日发射的星链卫星,属于SpaceX星链星座组网卫星,星链计划旨在构建全球卫星互联网,为全球提供高速低延迟互联网服务,该卫星承担星座扩容任务,助力完善星链网络覆盖,进一步提升全球网络服务的容量与稳定性,服务通信、导航等多领域应用需求。

Basic Information
目录编号:
59095
目录名称:
STARLINK-31295
国际标识:
2024-041X
轨道中心:
EARTH
卫星名称:
星链-31295
卫星全名:
星链-31295 (STARLINK-31295 )
卫星状态:
在轨 (已飞行791 天)
发射日期:
2024-02-29 UTC
国别 :
美国 (US)
星等 :
--
Orbit Information
数据来源 国际轨道数据 AOE轨道数据
星历时间 2026-04-30T18:08:07+0800
13小时前
查看轨道信息
2026-04-27T00:00:00+0800
4天前
查看轨道信息
半长轴 6861.188km 6861.168km
偏心率 0.0000672 0.0000857
轨道倾角 43.006° 43.010°
近地点辐角 295.050° 246.894°
升交点赤经 18.514° 39.731°
平近点角 65.028° 315.683°
近地点 482.589km 482.442km
远地点 483.513km 483.62km
周期 94.267分钟 94.266分钟
每日圈数 15.275794 15.275861
Detailed Information
固有亮度:
5
最大亮度:
0.3
卫星平台:
Starlink v2.0 mini
覆盖范围:
全球
运营商:
太空探索技术公司
运营商所在国:
美国
制造商(研发单位):
太空探索技术公司
制造商所在国:
美国
使用方式:
暂无
Satellite Introduction
星链(Starlink)计划是由太空探索技术公司(SpaceX)提出的一个巨型低轨卫星互联网星座项目,计划在2019年至2024年间在太空搭建由约1.2万颗卫星组成的“星链”网络,其中1584颗将部署在地球上空550千米处的近地轨道,并从2020年开始工作。该卫星仍在工作。
2D Orbit Map
3D Orbit Map
Orbit Altitude Analysis Chart
Orbit Inclination Analysis Chart
Orbit Comprehensive Analysis Chart
View Comprehensive Chart